sat.trackr.live / text

‹ back to catalog

QIANFAN-230

NORAD 69859 · 2026-155M

PAYLOAD ACTIVE UNKNOWN

§ Identity

Operator
Country
PRC
Launch date
2026-07-05
Launch site
WSC
Launch vehicle
Mass (kg)
RCS (m²)

External: N2YO · Heavens-Above · Gunter

§ Orbital elements

Epoch: 2026-09-19T21:34:39.072576Z

Period
106.59 min
Inclination
89.0088°
Eccentricity
0.0034644
Mean motion
13.51033410 rev/d
Perigee alt
1,042.7 km
Apogee alt
1,094.3 km
Semi-major
7,446.6 km
B*
5.6058e-5
RAAN
53.8021°
Arg perigee
14.2681°
Mean anomaly
345.9440°
Rev number
1,063

§ Raw data

QIANFAN-2301 69859U 26155M   26262.89906334  .00000048  00000+0  56058-4 0  99952 69859  89.0088  53.8021 0034644  14.2681 345.9440 13.51033410 10634

JSON: /api/v1/satellites/69859 · /tle

For live sub-satellite position, see the globe view (requires WebGL).

§ Visibility from observer

Set your observer location to see the next 7 days of passes ≥ 10°. The values pass through the URL so the page stays shareable.

No JS? Fill the form by hand. The geolocation button needs JavaScript.